TimeEDT,TemperatureF,Dew PointF,Humidity,Sea Level PressureIn,VisibilityMPH,Wind Direction,Wind SpeedMPH,Gust SpeedMPH,PrecipitationIn,Events,Conditions,WindDirDegrees,DateUTC
12:54 AM,1.4,1.4,100,-9999,0.0,WNW,49.5,-,N/A,Fog-Snow,Light Freezing Fog,290,2013-03-21 04:54:00
1:53 AM,1.4,1.4,100,-9999,0.0,WNW,55.2,-,N/A,Fog-Snow,Light Snow Showers,290,2013-03-21 05:53:00
2:54 AM,1.4,1.4,100,-9999,0.0,WNW,54.1,58.7,N/A,Fog-Snow,Light Snow Showers,290,2013-03-21 06:54:00
3:59 AM,-0.4,-0.4,100,-9999,0.0,WNW,50.6,-,N/A,Fog-Snow,Light Freezing Fog,290,2013-03-21 07:59:00
4:56 AM,-0.4,-0.4,100,-9999,0.0,WNW,43.7,-,N/A,Fog-Snow,Light Freezing Fog,290,2013-03-21 08:56:00
5:53 AM,-0.4,-0.4,100,-9999,0.0,WNW,38.0,-,N/A,Fog-Snow,Light Freezing Fog,290,2013-03-21 09:53:00
6:49 AM,1.4,1.4,100,-9999,0.0,WNW,46.0,-,N/A,Fog-Snow,Light Freezing Fog,300,2013-03-21 10:49:00
7:52 AM,1.4,1.4,100,-9999,0.1,WNW,35.7,-,N/A,Fog-Snow,Light Freezing Fog,300,2013-03-21 11:52:00
8:47 AM,1.4,1.4,100,-9999,0.1,WNW,35.7,-,N/A,Fog-Snow,Light Freezing Fog,300,2013-03-21 12:47:00
9:52 AM,3.2,3.2,100,-9999,0.1,WNW,32.2,-,N/A,Fog-Snow,Light Freezing Fog,290,2013-03-21 13:52:00
10:54 AM,6.8,6.8,100,-9999,0.1,WNW,26.5,-,N/A,Fog,Light Freezing Fog,290,2013-03-21 14:54:00
11:56 AM,8.6,8.6,100,-9999,0.1,WNW,18.4,-,N/A,Fog,Light Freezing Fog,290,2013-03-21 15:56:00
12:58 PM,10.4,10.4,100,-9999,0.1,West,17.3,-,N/A,Fog,Light Freezing Fog,280,2013-03-21 16:58:00
1:59 PM,6.8,3.2,85,-9999,100.0,West,10.4,-,N/A,Snow,Light Snow Showers,280,2013-03-21 17:59:00
2:56 PM,8.6,3.2,79,-9999,100.0,West,9.2,-,N/A,Snow,Light Snow Showers,280,2013-03-21 18:56:00
3:55 PM,8.6,5.0,85,-9999,100.0,West,10.4,-,N/A,Snow,Light Snow Showers,280,2013-03-21 19:55:00
4:56 PM,8.6,6.8,92,-9999,100.0,West,10.4,-,N/A,Snow,Light Snow Showers,280,2013-03-21 20:56:00
5:58 PM,8.6,5.0,85,-9999,100.0,West,10.4,-,N/A,Snow,Light Snow Showers,280,2013-03-21 21:58:00
6:54 PM,6.8,3.2,85,-9999,60.0,West,8.1,-,N/A,Snow,Light Snow Showers,280,2013-03-21 22:54:00
7:52 PM,6.8,3.2,85,-9999,1.0,West,8.1,-,N/A,Snow,Light Snow,280,2013-03-21 23:52:00
8:58 PM,5.0,3.2,92,-9999,10.0,NW,3.5,-,N/A,Snow,Light Snow,320,2013-03-22 00:58:00
9:52 PM,5.0,1.4,85,-9999,1.0,NW,8.1,-,N/A,Snow,Light Snow,310,2013-03-22 01:52:00
10:51 PM,3.2,3.2,100,-9999,0.2,Variable,2.3,-,N/A,Fog-Snow,Light Snow,0,2013-03-22 02:51:00
11:55 PM,5.0,1.4,85,-9999,15.0,NNW,4.6,-,N/A,Snow,Light Snow,340,2013-03-22 03:55:00